Troy, AL

5:08 AM CDT on March 27, 2017 (GMT -0500)
Troy Municipal

Weather History for KTOI - June, 2012

Change the Weather History Date:

Saturday, June 16, 2012

  Actual Average Record
Temperature  
Mean Temperature 74 °F 78 °F  
Max Temperature 85 °F 90 °F 98 °F (2011)
Min Temperature 63 °F 67 °F 57 °F (2002)
Cooling Degree Days 9 13  
Month to date cooling degree days 164 188  
Year to date cooling degree days 598 475  
Since 1 June cooling degree days 164 188  
Growing Degree Days 24 (Base 50)    
Moisture  
Dew Point 62 °F    
Average Humidity 69    
Maximum Humidity 93    
Minimum Humidity 44    
Precipitation  
Precipitation 0.00 in 0.16 in 1.68 in (2016)
Month to date precipitation 5.90 2.51  
Year to date precipitation 30.83 25.34  
Sea Level Pressure  
Sea Level Pressure 30.13 in    
Wind  
Wind Speed 4 mph (East)    
Max Wind Speed 14 mph    
Max Gust Speed 20 mph    
Visibility 10 miles    
Events      
T = Trace of Precipitation, MM = Missing Value Source: NWS Daily Summary

Daily Weather History Graph

Daily Weather History Graph

Search for Another Location

Airport or City:

Trip Planner

Search our weather history database for the weather conditions in past years. The results will help you decide how hot, cold, wet, or windy it might be!

Date:

Astronomy

Jun. 16, 2012 Rise Set
Actual Time 5:38 AM CDT 7:51 PM CDT
Civil Twilight 5:09 AM CDT 8:19 PM CDT
Nautical Twilight 4:35 AM CDT 8:54 PM CDT
Astronomical Twilight 3:58 AM CDT 9:31 PM CDT
Moon 3:21 AM CDT (6/16) 5:30 PM CDT (6/16)
Length of Visible Light 15h 10m
Length of Day
14h 13m
Waning Crescent, 8% of the Moon is Illuminated
Jun 16
Waning Crescent
Jun 19
New
Jun 26
First Quarter
Jul 3
Full
Jul 10
Last Quarter

Hourly Weather History & Observations

Time (CDT) Temp. Heat Index Dew Point Humidity Pressure Visibility Wind Dir Wind Speed Gust Speed Precip Events Conditions
12:53 AM 68.0 °F - 66.0 °F 93% 30.10 in 10.0 mi Calm Calm - N/A   Partly Cloudy
1:53 AM 69.1 °F - 64.9 °F 87% 30.10 in 10.0 mi ENE 3.5 mph - N/A   Clear
2:53 AM 68.0 °F - 64.0 °F 87% 30.11 in 10.0 mi ENE 4.6 mph - N/A   Scattered Clouds
3:53 AM 66.9 °F - 62.1 °F 84% 30.12 in 10.0 mi East 3.5 mph - N/A   Clear
4:53 AM 66.9 °F - 61.0 °F 81% 30.13 in 10.0 mi Calm Calm - N/A   Partly Cloudy
5:53 AM 64.0 °F - 61.0 °F 90% 30.15 in 10.0 mi Calm Calm - N/A   Partly Cloudy
6:53 AM 68.0 °F - 62.1 °F 81% 30.17 in 10.0 mi Calm Calm - N/A   Clear
7:53 AM 72.0 °F - 63.0 °F 73% 30.19 in 10.0 mi East 6.9 mph - N/A   Clear
8:53 AM 75.9 °F - 63.0 °F 64% 30.19 in 10.0 mi East 9.2 mph - N/A   Clear
9:53 AM 78.1 °F - 62.1 °F 58% 30.19 in 10.0 mi ENE 8.1 mph - N/A   Clear
10:53 AM 78.1 °F - 57.9 °F 50% 30.19 in 10.0 mi ENE 11.5 mph - N/A   Clear
11:53 AM 79.0 °F - 59.0 °F 50% 30.17 in 10.0 mi ENE 4.6 mph - N/A   Scattered Clouds
12:53 PM 82.9 °F 83.3 °F 61.0 °F 47% 30.16 in 10.0 mi East 5.8 mph - N/A   Scattered Clouds
1:53 PM 82.0 °F 82.4 °F 60.1 °F 47% 30.14 in 10.0 mi East 8.1 mph 17.3 mph N/A   Scattered Clouds
2:53 PM 82.9 °F 83.3 °F 61.0 °F 47% 30.13 in 10.0 mi Variable 4.6 mph - N/A   Scattered Clouds
3:53 PM 82.0 °F 82.4 °F 60.1 °F 47% 30.11 in 10.0 mi East 8.1 mph - N/A   Mostly Cloudy
4:53 PM 84.0 °F 84.4 °F 61.0 °F 46% 30.09 in 10.0 mi East 9.2 mph - N/A   Partly Cloudy
5:53 PM 82.0 °F 82.7 °F 61.0 °F 49% 30.08 in 10.0 mi East 5.8 mph - N/A   Partly Cloudy
6:53 PM 80.1 °F 81.1 °F 61.0 °F 52% 30.07 in 10.0 mi East 5.8 mph - N/A   Clear
7:53 PM 75.9 °F - 64.0 °F 67% 30.07 in 10.0 mi Calm Calm - N/A   Clear
8:53 PM 71.1 °F - 66.0 °F 84% 30.08 in 10.0 mi NNE 3.5 mph - N/A   Clear
9:53 PM 66.9 °F - 64.0 °F 90% 30.08 in 10.0 mi Calm Calm - N/A   Clear
10:53 PM 66.9 °F - 64.0 °F 90% 30.10 in 10.0 mi Calm Calm - N/A   Clear
11:53 PM 66.0 °F - 63.0 °F 90% 30.10 in 10.0 mi Calm Calm - N/A   Clear